{"data":{"norad_id":60432,"epoch":"2026-05-25T05:00:56.577024Z","epoch_age_seconds":60077,"freshness":"FRESH","line1":"1 60432U 24144H   26145.20898816  .00000798  00000+0  39057-4 0  9991","line2":"2 60432  53.1601 221.7772 0001118  84.4286 275.6843 15.30193209101026","mean_motion":15.30193209,"eccentricity":0.0001118,"inclination_deg":53.1601,"raan_deg":221.7772,"arg_perigee_deg":84.4286,"mean_anomaly_deg":275.6843,"bstar":3.9057e-5,"rev_number":10102,"period_min":94.105763346124,"perigee_km":474.46913916792,"apogee_km":476.00155322453,"semimajor_km":6853.3723461962,"source":"CELESTRAK","updated_at":"2026-05-25T13:38:19.273903Z"}}